Terminal Aerodrome Forecast
Issued by NWS

Home | Current Version | Previous Version | Text Only | Print | Product List | Glossary On
Versions: 1 2 3 4 5 6 7 8 9 10 11 12 13 14 15 16
000
FTUS41 KALY 232300
TAFPSF
TAF
KPSF 232333Z 2400/2424 30015G25KT P6SM VCSH SCT025 OVC040
      TEMPO 2400/2404 BKN025 OVC040
     FM240400 29015G25KT P6SM SCT040
     FM241400 30016G28KT P6SM SCT040=

USA.gov is the U.S. government's official web portal to all federal, state and local government web resources and services.